Beckley, WV

2:19 PM EDT on April 26, 2017 (GMT -0400)
Raleigh County Memorial

Weather History for KBKW - January, 2013

Change the Weather History Date:

Thursday, January 10, 2013

  Actual Average Record
Temperature  
Mean Temperature 45 °F 31 °F  
Max Temperature 55 °F 39 °F 70 °F (1946)
Min Temperature 35 °F 23 °F -13 °F (1982)
Degree Days  
Heating Degree Days 20 34  
Month to date heating degree days 312 340  
Since 1 July heating degree days 2334 2433  
Cooling Degree Days 0 0  
Month to date cooling degree days 0 0  
Year to date cooling degree days 0 0  
Moisture  
Dew Point 34 °F    
Average Humidity 65    
Maximum Humidity 100    
Minimum Humidity 29    
Precipitation  
Precipitation 0.00 in 0.09 in 1.83 in (1974)
Month to date precipitation 0.25 0.92  
Year to date precipitation 0.25 0.92  
Snow  
Snow 0.00 in - - ()
Month to date snowfall 0.2  
Since 1 September snowfall 38.4  
Snow Depth 0.00 in    
Sea Level Pressure  
Sea Level Pressure 30.47 in    
Wind  
Wind Speed 5 mph (SE)    
Max Wind Speed 17 mph    
Max Gust Speed 26 mph    
Visibility 6 miles    
Events Fog    
T = Trace of Precipitation, MM = Missing Value Source: NWS Daily Summary

Daily Weather History Graph

Daily Weather History Graph

Search for Another Location

Airport or City:

Trip Planner

Search our weather history database for the weather conditions in past years. The results will help you decide how hot, cold, wet, or windy it might be!

Date:

Astronomy

Jan. 10, 2013 Rise Set
Actual Time 7:39 AM EST 5:24 PM EST
Civil Twilight 7:10 AM EST 5:53 PM EST
Nautical Twilight 6:38 AM EST 6:26 PM EST
Astronomical Twilight 6:06 AM EST 6:57 PM EST
Moon 6:18 AM EST (1/10) 4:30 PM EST (1/10)
Length of Visible Light 10h 42m
Length of Day
9h 44m
Waning Crescent, 2% of the Moon is Illuminated
Jan 10
Waning Crescent
Jan 11
New
Jan 18
First Quarter
Jan 26
Full
Feb 3
Last Quarter

Hourly Weather History & Observations

Time (EST) Temp. Windchill Dew Point Humidity Pressure Visibility Wind Dir Wind Speed Gust Speed Precip Events Conditions
12:51 AM 39.9 °F - 36.0 °F 86% 30.53 in 10.0 mi Calm Calm - N/A   Clear
1:51 AM 37.9 °F - 35.1 °F 89% 30.53 in 10.0 mi Calm Calm - N/A   Clear
2:46 AM 37.4 °F 34.9 °F 35.6 °F 93% 30.48 in 3.0 mi ENE 3.5 mph - N/A   Scattered Clouds
2:51 AM 36.0 °F 33.3 °F 35.1 °F 97% 30.53 in 6.0 mi ENE 3.5 mph - N/A   Mostly Cloudy
2:55 AM 37.4 °F - 35.6 °F 93% 30.48 in 1.5 mi Calm Calm - N/A   Mostly Cloudy
3:02 AM 37.4 °F - 37.4 °F 100% 30.48 in 0.2 mi Calm Calm - N/A Fog Fog
3:51 AM 37.9 °F - 37.0 °F 97% 30.51 in 0.2 mi Calm Calm - N/A Fog Fog
4:51 AM 37.0 °F - 36.0 °F 96% 30.50 in 0.2 mi Calm Calm - N/A Fog Fog
5:29 AM 35.6 °F 32.8 °F 35.6 °F 100% 30.47 in 0.5 mi South 3.5 mph - N/A Fog Fog
5:51 AM 36.0 °F - 35.1 °F 97% 30.52 in 0.5 mi Calm Calm - N/A Fog Fog
6:10 AM 35.6 °F - 35.6 °F 100% 30.47 in 1.0 mi Calm Calm - N/A   Clear
6:25 AM 35.6 °F - 35.6 °F 100% 30.47 in 0.8 mi Calm Calm - N/A   Mist
6:39 AM 35.6 °F - 35.6 °F 100% 30.48 in 0.2 mi Calm Calm - N/A Fog Fog
6:51 AM 36.0 °F - 35.1 °F 97% 30.53 in 0.8 mi Calm Calm - N/A   Mist
6:54 AM 35.6 °F - 35.6 °F 100% 30.48 in 1.2 mi Calm Calm - N/A   Partly Cloudy
7:01 AM 35.6 °F - 33.8 °F 93% 30.49 in 3.0 mi Calm Calm - N/A   Partly Cloudy
7:51 AM 36.0 °F - 34.0 °F 93% 30.55 in 3.0 mi Calm Calm - N/A   Clear
8:03 AM 35.6 °F - 33.8 °F 93% 30.50 in 2.0 mi Calm Calm - N/A   Clear
8:31 AM 35.6 °F - 35.6 °F 100% 30.51 in 4.0 mi Calm Calm - N/A   Clear
8:51 AM 37.0 °F - 35.1 °F 93% 30.55 in 3.0 mi Calm Calm - N/A   Clear
9:18 AM 37.4 °F - 35.6 °F 93% 30.52 in 2.5 mi Calm Calm - N/A   Clear
9:27 AM 37.4 °F - 35.6 °F 93% 30.52 in 6.0 mi Calm Calm - N/A   Clear
9:51 AM 37.9 °F - 36.0 °F 93% 30.56 in 10.0 mi Calm Calm - N/A   Clear
10:51 AM 46.0 °F - 36.0 °F 68% 30.54 in 10.0 mi Calm Calm - N/A   Partly Cloudy
11:51 AM 51.1 °F - 34.0 °F 52% 30.48 in 10.0 mi SE 5.8 mph - N/A   Mostly Cloudy
12:51 PM 54.0 °F - 30.9 °F 41% 30.45 in 10.0 mi ESE 4.6 mph - N/A   Overcast
1:51 PM 55.0 °F - 28.9 °F 37% 30.43 in 10.0 mi Variable 5.8 mph - N/A   Clear
2:51 PM 54.0 °F - 23.0 °F 30% 30.43 in 10.0 mi SE 10.4 mph 16.1 mph N/A   Mostly Cloudy
3:51 PM 52.0 °F - 25.0 °F 35% 30.41 in 10.0 mi ESE 8.1 mph - N/A   Clear
4:51 PM 50.0 °F - 30.0 °F 46% 30.42 in 10.0 mi ESE 6.9 mph - N/A   Clear
5:51 PM 50.0 °F - 30.9 °F 48% 30.42 in 10.0 mi SE 9.2 mph - N/A   Clear
6:51 PM 48.2 °F - 32.0 °F 54% 30.37 in 10.0 mi SE 9.2 mph 19.6 mph N/A   Clear
7:51 PM 48.9 °F - 32.0 °F 52% 30.40 in 10.0 mi SE 12.7 mph - N/A   Clear
8:51 PM 48.9 °F - 32.0 °F 52% 30.40 in 10.0 mi SSE 15.0 mph 25.3 mph N/A   Clear
9:51 PM 48.9 °F - 32.0 °F 52% 30.38 in 10.0 mi SE 10.4 mph 18.4 mph N/A   Mostly Cloudy
10:51 PM 48.0 °F - 30.9 °F 52% 30.35 in 10.0 mi SSE 10.4 mph 18.4 mph N/A   Clear
11:51 PM 48.0 °F - 32.0 °F 54% 30.30 in 10.0 mi SSE 10.4 mph 23.0 mph N/A   Clear